Weather in Lyuban

Belarus     52°47′56″N   27°59′36″E
temp.,
°C
wind,
m/s
gust,
m/s
humid.,
%
clouds,
%
prec.,
mm/h
press.,
hPa
HPBL,
m
26 july, mon
mon2600:00+18ese227832 0.0 101919
03:00+16sse2282100 0.0 101914
06:00+16ese3484100 0.0 101953
09:00+21se3568100 0.0 1020342
12:00+26sse455054 0.0 10191167
15:00+27se4548100 0.0 10181485
18:00+24e46570 0.0 1018348
21:00+21ese487061 0.0 1018135
27 july, tue
tue2700:00+20se366397 0.0 1019129
03:00+18se3781100 0.1 1019151
06:00+18se488026 0.0 1018151
09:00+22se5106699 0.0 1017407
12:00+27sse795099 0.0 10161013
15:00+30sse794049 0.0 10152123
18:00+24ssw61166100 0.0 1014448
21:00+20sse3992100 2.6 1013219
28 july, wed
wed2800:00+19sse3594100 3.1 1013115
03:00+18sw4996100 4.1 1013296
06:00+17w3897100 0.0 1013252
09:00+21wnw35830 0.0 1014409
12:00+26wnw45584 0.0 10141169
15:00+28wnw45495 0.0 10131808
18:00+28wnw355182 0.0 10121882
21:00+24w336615 0.0 101244
29 july, thu
thu2900:00+20wsw2279100 0.0 101321
03:00+19s008099 0.0 101111
06:00+19sse2282100 0.0 101139
09:00+23s3570100 0.0 1010310
12:00+24wsw356994 0.3 10101050
15:00+23wnw568092 1.9 1010668
18:00+24wnw696732 0.1 10101266
21:00+20wnw49760 0.2 1011179
30 july, fri
fri3000:00+17wnw35800 0.0 101291
03:00+18w237429 0.0 101266
06:00+16wsw238378 0.0 101244
09:00+21wsw24671 0.0 1012339
12:00+26ssw454895 0.0 10111403
15:00+28sw574248 0.0 10092535
18:00+28ssw46475 0.0 10081131
21:00+22s486548 0.0 1007114